Regional Weather Roundup
Issued by NWS

Home | Current Version | Previous Version | Text Only | Print | Product List | Glossary Off
Versions: 1 2 3 4 5 6 7 8 9 10 11 12 13 14 15 16 17 18 19 20 21 22 23 24 25 26 27

000
ASUS45 KBOU 230307
RWRCO

WEATHER ROUNDUP FOR COLORADO
NATIONAL WEATHER SERVICE DENVER/BOULDER CO
900 PM MDT WED MAR 22 2017

NOTE: "FAIR" INDICATES FEW OR NO CLOUDS BELOW 12000 FEET WITH NO
SIGNIFICANT WEATHER AND/OR OBSTRUCTIONS TO VISIBILITY.

COZ001>005-013-030-031-230400-
...NORTHWEST COLORADO...

CITY           SKY/WX    TMP DP  RH WIND       PRES   REMARKS
CRAIG          MOCLDY    54  29  38 SW16G30   29.89F
HAYDEN         MOCLDY    52  27  37 SW6       29.91S
MEEKER         FAIR      48  35  60 NE6       29.91F
MOUNT WERNER   NOT AVBL
STEAMBOAT SPGS FAIR      48  30  49 CALM      29.91F
WALDEN         NOT AVBL
$$

COZ006>008-011-230400-
...WEST CENTRAL VALLEYS...

CITY           SKY/WX    TMP DP  RH WIND       PRES   REMARKS
GRAND JUNCTION CLOUDY    63  26  24 S7        29.78F
MONTROSE       FAIR      54  28  36 S6        29.86F
EAGLE          CLEAR     48  30  49 E8        29.94F
RIFLE          CLOUDY    56  34  43 CALM      29.86F
DELTA          FAIR      62  28  27 NE8       29.82F
NUCLA          FAIR      55  23  28 E6        29.88F
$$

COZ017>023-064>068-230400-
...SOUTHWEST COLORADO...

CITY           SKY/WX    TMP DP  RH WIND       PRES   REMARKS
DURANGO        FAIR      54  21  27 VRB3      29.95S
CORTEZ         FAIR      55  25  31 S5        29.88S
PAGOSA SPRINGS MOCLDY    50  28  41 NE3       30.01F
TELLURIDE      CLOUDY    51  15  23 SE13G18   30.03F
WOLF CREEK PAS CLOUDY    34  18  51 S6        30.25F WCI  29
$$

COZ009-010-012-014-032>034-037-058>063-230400-
...CENTRAL COLORADO...

CITY           SKY/WX    TMP DP  RH WIND       PRES   REMARKS
ASPEN          FAIR      45  28  51 S6        29.95F
BUENA VISTA    FAIR      51  13  22 S3        30.01S
COPPER MTN     FAIR      37  14  38 S9G18     30.18F
BERTHOUD PASS  FAIR      32  23  69 S20       30.20S WCI  20
COTTONWOOD PAS FAIR      50   5  16 SW10G23   30.10S
GUNNISON       FAIR      42  29  59 N9        29.99F
KREMMLING      FAIR      54  28  37 CALM      29.96F
LEADVILLE      FAIR      40  18  41 S8        30.07F
MONARCH PASS   FAIR      34  12  40 SW30G37   30.30F WCI  20
SALIDA         FAIR      52  12  20 SW5       30.07S
SUNLIGHT       MOCLDY    34  27  75 SE7G21    30.10F WCI  28
WILKERSON PASS FAIR      41   7  24 SW15G26   30.18R
$$

COZ069>075-230400-
...SAN LUIS VALLEY/SANGRE DE CRISTO MOUNTAINS...

CITY           SKY/WX    TMP DP  RH WIND       PRES   REMARKS
ALAMOSA        FAIR      47  23  38 W3        30.00S
LA VETA PASS   NOT AVBL
SAGUACHE       FAIR      46  14  27 N9        30.02F
$$

COZ035-036-038>040-230400-
...NORTHERN COLORADO FRONT RANGE...

CITY           SKY/WX    TMP DP  RH WIND       PRES   REMARKS
DENVER INTL AP MOCLDY    56  30  37 S14       29.85R
DMNS CITY PARK   N/A     58  32  38 E9        29.84S
AURORA         MOCLDY    60  32  35 S17       29.85F
FRONT RANGE AP MOCLDY    59  32  36 S13       29.86S
ERIE MUNI ARPT FAIR      58  32  37 CALM      29.82S
BOULDER MUN AP FAIR      57  32  38 W3        29.83S
CENTENNIAL     MOCLDY    58  30  34 S13       29.87S
BROOMFIELD     CLOUDY    59  32  36 S5        29.86R
FORT COLLINS   FAIR      59  35  40 NW6       29.82S
LONGMONT       FAIR      57  36  44 CALM      29.83F
$$

COZ041-046-047-076>085-087-088-230400-
...PIKES PEAK/PALMER DIVIDE AND SOUTHERN FOOTHILLS...

CITY           SKY/WX    TMP DP  RH WIND       PRES   REMARKS
COLO. SPRINGS  MOCLDY    52  30  43 NE8       29.93F
A. F. ACADEMY  FAIR      51  30  44 CALM      29.94F
SCHRIEVER AFB  FAIR      53  36  53 NE6       29.94F
ELLICOTT         N/A    N/A N/A N/A E15       29.91F
FALCON         FAIR      50  35  55 CALM      29.98F
FORT CARSON    PTCLDY    55  31  40 CALM      29.91F
LIMON          FAIR      53  40  61 SE14      29.90S
MONUMENT HILL  FAIR      46  34  61 S12       29.97S
TRINIDAD       FAIR      67  32  27 S21G35    29.91R
$$

COZ042>045-048>051-090-091-230400-
...NORTHEAST COLORADO...

CITY           SKY/WX    TMP DP  RH WIND       PRES   REMARKS
GREELEY ARPT   FAIR      62  36  37 E8        29.81S
AKRON          FAIR      53  36  52 SE21      29.87F
BURLINGTON     FAIR      52  38  58 SE23      29.91R
WRAY           NOT AVBL
STERLING       FAIR      59  37  44 S17       29.83F
HOLYOKE        FAIR      52  37  58 SE18      29.91S
FORT MORGAN    FAIR      59  37  43 SE14G20   29.84S
$$

COZ086-089-092>099-230400-
...SOUTHEAST COLORADO...

CITY           SKY/WX    TMP DP  RH WIND       PRES   REMARKS
PUEBLO         FAIR      54  32  43 W5        29.84F
LA JUNTA       FAIR      66  38  35 S10       29.84R
LAMAR          FAIR      61  42  49 SE12      29.87R
SPRINGFIELD      N/A     57  44  62 S16       29.94R
$$




USA.gov is the U.S. government's official web portal to all federal, state and local government web resources and services.